Hourly Data Report for August 18, 2022

TORONTO CITY
ONTARIO
Current Station Operator: ECCC - MSC

43°40'00.000" N
79°24'00.000" W
112.50 m
6158355
71508
XTO

Download Data

Hourly Data (August 2022)
Hourly Data Report for August 18, 2022
TIME
LST
Temp Definition
°C
Dew Point Definition
°C
Rel Hum Definition
%
Precip. Amount Definition
mm

Wind Dir Definition
10's deg

Wind Spd Definition
km/h
Visibility Definition
km
Stn Press Definition
kPa
Hmdx Definition


Wind Chill Definition


Weather Definition


00:00 19.8 15.7 77 0.0       100.20     LegendNANA
01:00 19.8 16.2 80 0.0       100.17     LegendNANA
02:00 19.8 16.4 81 0.0       100.16     LegendNANA
03:00 19.2 16.4 84 0.0       100.13     LegendNANA
04:00 18.6 16.3 86 0.0       100.14     LegendNANA
05:00 18.8 15.7 82 0.0       100.11     LegendNANA
06:00 19.6 15.6 78 0.0       100.14     LegendNANA
07:00 20.1 15.5 75 0.0       100.15     LegendNANA
08:00 22.3 14.8 62 0.0       100.14 26   LegendNANA
09:00 24.7 14.2 52 0.0       100.11 28   LegendNANA
10:00 25.9 14.0 48 0.0       100.10 29   LegendNANA
11:00 27.2 12.7 41 0.0       100.06 30   LegendNANA
12:00 28.4 12.3 37 0.0       100.04 31   LegendNANA
13:00 28.6 13.9 41 0.0       100.01 32   LegendNANA
14:00 27.0 14.1 45 0.0       99.96 30   LegendNANA
15:00 26.7 13.2 44 0.0       99.92 30   LegendNANA
16:00 28.3 11.7 36 0.0       99.89 30   LegendNANA
17:00 25.6 14.4 50 0.0       99.95 29   LegendNANA
18:00 26.7 13.7 45 0.0       99.95 30   LegendNANA
19:00 25.5 16.2 56 0.0       99.96 30   LegendNANA
20:00 23.6 17.1 67 0.0       100.00 29   LegendNANA
21:00 23.1 15.4 62 0.0       100.04 27   LegendNANA
22:00 22.9 14.2 58 0.0       100.04 26   LegendNANA
23:00 21.8 13.8 60 0.0       100.08 25   LegendNANA

Notes on Data Quality.

Legend

  • E = Estimated
  • M = Missing
  • NA = Not Available*
  • [empty] = Indicates an unobserved value
Date modified: